Weather History for EGDM - December, 2013

Change the Weather History Date:

Wednesday, December 25, 2013

  Actual Average Record
Temperature  
Mean Temperature 37 °F -  
Max Temperature 40 °F 42 °F 51 °F (2011)
Min Temperature 34 °F 34 °F 17 °F (2010)
Degree Days  
Heating Degree Days 28    
Moisture  
Dew Point 35 °F    
Average Humidity 91    
Maximum Humidity 100    
Minimum Humidity 80    
Precipitation  
Precipitation 0.08 in - - ()
Sea Level Pressure  
Sea Level Pressure 29.06 in    
Wind  
Wind Speed 6 mph ()    
Max Wind Speed 10 mph    
Max Gust Speed -    
Visibility 6.8 miles    
Events Rain    
Averages and records for this station are not official NWS values.
T = Trace of Precipitation, MM = Missing Value Source: Averaged Metar Reports

Daily Weather History Graph

Daily Weather History Graph

Search for Another Location

Airport or City:

Trip Planner

Search our weather history database for the weather conditions in past years. The results will help you decide how hot, cold, wet, or windy it might be!

Date:

Astronomy

Dec. 25, 2013 Rise Set
Actual Time 8:10 AM GMT 4:04 PM GMT
Civil Twilight 7:30 AM GMT 4:44 PM GMT
Nautical Twilight 6:47 AM GMT 5:26 PM GMT
Astronomical Twilight 6:07 AM GMT 6:07 PM GMT
Moon No Moon Rise 11:37 AM GMT (12/25)
Length of Visible Light 9h 13m
Length of Day
7h 53m
Waning Gibbous, 51% of the Moon is Illuminated
Dec 25
Waning Gibbous
Dec 25
Last Quarter
Jan 1
New
Jan 8
First Quarter
Jan 16
Full

Hourly Weather History & Observations

Time (GMT) Temp. Windchill Dew Point Humidity Pressure Visibility Wind Dir Wind Speed Gust Speed Precip Events Conditions
12:00 AM 38 °F - 37 °F 96% 28.97 in 4 mi WSW 9.2 mph - - Rain Rain Showers
12:50 AM 35.6 °F 30.7 °F 33.8 °F 93% 28.94 in 6.2 mi SSW 5.8 mph - N/A   Unknown
1:00 AM 35 °F - 34 °F 92% 28.96 in 31 mi SSW 5.8 mph - - Rain Rain
1:50 AM 35.6 °F 30.7 °F 32.0 °F 87% 28.94 in 6.2 mi SSW 5.8 mph - N/A   Partly Cloudy
2:00 AM 35 °F - 33 °F 87% 28.96 in 31 mi SSW 5.8 mph - -   Unknown Precipitation
2:50 AM 35.6 °F 29.2 °F 33.8 °F 93% 28.94 in 6.2 mi South 8.1 mph - N/A   Partly Cloudy
3:00 AM 36 °F - 34 °F 88% 28.98 in 25 mi South 8.1 mph - - Rain Rain
3:50 AM 35.6 °F 29.2 °F 33.8 °F 93% 28.94 in 6.2 mi SSW 8.1 mph - N/A   Scattered Clouds
4:00 AM 36 °F - 34 °F 87% 28.98 in 31 mi SSW 8.1 mph - -   Partly Cloudy
4:50 AM 35.6 °F 28.0 °F 33.8 °F 93% 28.94 in 6.2 mi SSW 10.4 mph - N/A   Unknown
5:00 AM 36 °F - 34 °F 87% 28.98 in 28 mi SSW 10.4 mph - -  
5:50 AM 35.6 °F 28.6 °F 33.8 °F 93% 28.97 in 6.2 mi South 9.2 mph - N/A   Partly Cloudy
6:00 AM 36 °F - 34 °F 89% 29.00 in 28 mi South 9.2 mph - -   Scattered Clouds
6:50 AM 35.6 °F 29.2 °F 33.8 °F 93% 29.00 in 6.2 mi South 8.1 mph - N/A   Partly Cloudy
7:00 AM 36 °F - 34 °F 89% 29.03 in 28 mi South 8.1 mph - -   Scattered Clouds
7:50 AM 35.6 °F 29.2 °F 33.8 °F 93% 29.03 in 6.2 mi South 8.1 mph - N/A   Unknown
8:50 AM 35.6 °F 29.2 °F 33.8 °F 93% 29.03 in 6.2 mi South 8.1 mph - N/A   Mostly Cloudy
9:00 AM 36 °F - 34 °F 89% 29.06 in 19 mi South 8.1 mph - -   Scattered Clouds
9:50 AM 35.6 °F 28.6 °F 35.6 °F 100% 29.06 in 6.2 mi SSW 9.2 mph - N/A Rain Heavy Rain Showers
10:00 AM 36 °F - 35 °F 93% 29.09 in 14 mi SSW 9.2 mph - - Rain Heavy Rain Showers
10:50 AM 37.4 °F 32.1 °F 35.6 °F 93% 29.06 in 6.2 mi South 6.9 mph - N/A Rain Light Rain Showers
11:00 AM 37 °F - 36 °F 93% 29.09 in 25 mi South 6.9 mph - - Rain Light Rain Showers
11:50 AM 41.0 °F 36.4 °F 37.4 °F 87% 29.06 in 6.2 mi South 6.9 mph - N/A   Scattered Clouds
12:00 PM 41 °F - 37 °F 80% 29.08 in 19 mi South 6.9 mph - - Rain Rain
12:50 PM 41.0 °F 38.0 °F 35.6 °F 81% 29.06 in 6.2 mi South 4.6 mph - N/A   Unknown
1:00 PM 40 °F - 36 °F 82% 29.07 in 31 mi South 4.6 mph - -  
1:50 PM 39.2 °F 34.2 °F 37.4 °F 93% 29.06 in 6.2 mi SSE 6.9 mph - N/A   Partly Cloudy
2:00 PM 40 °F - 37 °F 85% 29.08 in 31 mi SSE 6.9 mph - -   Scattered Clouds
2:50 PM 41.0 °F 35.8 °F 37.4 °F 87% 29.06 in 6.2 mi South 8.1 mph - N/A   Partly Cloudy
3:00 PM 40 °F - 37 °F 86% 29.09 in 22 mi South 8.1 mph - -   Scattered Clouds
3:50 PM 39.2 °F 35.0 °F 35.6 °F 87% 29.09 in 6.2 mi SE 5.8 mph - N/A   Mostly Cloudy
4:00 PM 38 °F - 35 °F 87% 29.11 in 25 mi SE 5.8 mph - -   Scattered Clouds
4:50 PM 37.4 °F 33.8 °F 35.6 °F 93% 29.09 in 6.2 mi East 4.6 mph - N/A   Mostly Cloudy
5:00 PM 38 °F - 36 °F 90% 29.12 in 28 mi East 4.6 mph - -   Scattered Clouds
5:50 PM 39.2 °F 35.9 °F 37.4 °F 93% 29.09 in 6.2 mi SE 4.6 mph - N/A Rain Light Rain Showers
6:00 PM 38 °F - 36 °F 92% 29.13 in 25 mi SE 4.6 mph - - Rain Light Rain Showers
6:50 PM 39.2 °F 35.9 °F 37.4 °F 93% 29.09 in 6.2 mi NE 4.6 mph - N/A Rain Light Rain
7:00 PM 39 °F - 37 °F 90% 29.13 in 28 mi NE 4.6 mph - - Rain Light Rain
7:50 PM 39.2 °F 35.0 °F 37.4 °F 93% 29.12 in 5.0 mi NW 5.8 mph - N/A Rain Rain
8:00 PM 39 °F - 37 °F 92% 29.14 in 5 mi NW 5.8 mph - - Rain Rain
8:50 PM 37.4 °F 34.9 °F 37.4 °F 100% 29.12 in 6.2 mi ENE 3.5 mph - N/A   Mostly Cloudy
9:00 PM 38 °F - 37 °F 93% 29.16 in 22 mi ENE 3.5 mph - - Rain Rain
9:50 PM 35.6 °F 32.8 °F 35.6 °F 100% 29.15 in 4.3 mi ESE 3.5 mph - N/A   Mostly Cloudy
10:00 PM 36 °F - 35 °F 95% 29.17 in 4 mi ESE 3.5 mph - -   Mist
10:50 PM 37.4 °F 34.9 °F 35.6 °F 93% 29.15 in - East 3.5 mph - N/A   Mostly Cloudy
11:00 PM 36 °F - 36 °F 99% 29.17 in 3 mi East 3.5 mph - - Rain Rain
11:50 PM 37.4 °F - 35.6 °F 93% 29.15 in 1.8 mi SSW 2.3 mph - N/A   Scattered Clouds